Ellensburg, WA

2:21 PM PDT on March 24, 2017 (GMT -0700)
Bowers

Weather History for KELN - December, 2012

Change the Weather History Date:

Wednesday, December 12, 2012

  Actual Average (KYKM) Record (KYKM)
Temperature  
Mean Temperature 36 °F -  
Max Temperature 45 °F 38 °F 56 °F (1956)
Min Temperature 28 °F 21 °F -8 °F (1972)
Degree Days  
Heating Degree Days 28    
Moisture  
Dew Point 28 °F    
Average Humidity 81    
Maximum Humidity 93    
Minimum Humidity 56    
Precipitation  
Precipitation 0.00 in - - ()
Sea Level Pressure  
Sea Level Pressure 29.73 in    
Wind  
Wind Speed 3 mph (NNW)    
Max Wind Speed 15 mph    
Max Gust Speed -    
Visibility 5 miles    
Events Fog    
Averages and records for this station are not official NWS values.
T = Trace of Precipitation, MM = Missing Value Source: NWS Daily Summary

Daily Weather History Graph

Daily Weather History Graph

Search for Another Location

Airport or City:

Trip Planner

Search our weather history database for the weather conditions in past years. The results will help you decide how hot, cold, wet, or windy it might be!

Date:

Astronomy

Dec. 12, 2012 Rise Set
Actual Time 7:39 AM PST 4:12 PM PST
Civil Twilight 7:03 AM PST 4:48 PM PST
Nautical Twilight 6:25 AM PST 5:27 PM PST
Astronomical Twilight 5:48 AM PST 6:04 PM PST
Moon 6:48 AM PST (12/12) 3:56 PM PST (12/12)
Length of Visible Light 9h 44m
Length of Day
8h 33m
Waning Crescent, 0% of the Moon is Illuminated
Dec 12
Waning Crescent
Dec 13
New
Dec 19
First Quarter
Dec 28
Full
Jan 4
Last Quarter

Hourly Weather History & Observations

Time (PST) Temp. Windchill Dew Point Humidity Pressure Visibility Wind Dir Wind Speed Gust Speed Precip Events Conditions
12:53 AM 33.1 °F 28.7 °F 28.9 °F 85% 29.59 in 10.0 mi West 4.6 mph - N/A   Mostly Cloudy
1:53 AM 32.0 °F 28.7 °F 27.0 °F 82% 29.60 in 9.0 mi SE 3.5 mph - N/A   Mostly Cloudy
2:13 AM 30.2 °F 26.7 °F 26.6 °F 86% 29.58 in 2.0 mi East 3.5 mph - N/A   Mostly Cloudy
2:15 AM 30.2 °F - 26.6 °F 86% 29.58 in 1.0 mi Calm Calm - N/A   Mostly Cloudy
2:22 AM 30.2 °F 26.7 °F 26.6 °F 86% 29.58 in 0.2 mi ENE 3.5 mph - N/A Fog Light Freezing Fog
2:53 AM 30.0 °F 24.1 °F 26.1 °F 85% 29.62 in 0.2 mi East 5.8 mph - N/A Fog Light Freezing Fog
3:53 AM 33.1 °F 30.0 °F 28.9 °F 85% 29.62 in 0.8 mi NE 3.5 mph - N/A   Overcast
4:20 AM 32.0 °F - 28.4 °F 87% 29.60 in 1.2 mi Calm Calm - N/A   Overcast
4:45 AM 32.0 °F 27.5 °F 28.4 °F 87% 29.60 in 3.0 mi NNE 4.6 mph - N/A   Overcast
4:53 AM 32.0 °F - 28.9 °F 88% 29.64 in 5.0 mi Calm Calm - N/A   Overcast
5:07 AM 32.0 °F - 28.4 °F 87% 29.60 in 1.8 mi Calm Calm - N/A   Overcast
5:13 AM 32.0 °F - 28.4 °F 87% 29.60 in 0.8 mi Calm Calm - N/A   Mist
5:53 AM 32.0 °F - 28.0 °F 85% 29.65 in 0.2 mi Calm Calm - N/A Fog Fog
6:53 AM 30.0 °F - 27.0 °F 88% 29.68 in 0.2 mi Calm Calm - N/A Fog Light Freezing Fog
7:13 AM 30.2 °F - 26.6 °F 86% 29.65 in 1.2 mi Calm Calm - N/A   Overcast
7:20 AM 30.2 °F 26.7 °F 26.6 °F 86% 29.65 in 3.0 mi North 3.5 mph - N/A   Overcast
7:50 AM 28.4 °F - 26.6 °F 93% 29.66 in 1.8 mi Calm Calm - N/A   Overcast
7:53 AM 28.9 °F 25.2 °F 25.0 °F 85% 29.70 in 0.8 mi SE 3.5 mph - N/A   Overcast
8:00 AM 28.4 °F - 24.8 °F 86% 29.66 in 0.2 mi Calm Calm - N/A Fog Light Freezing Fog
8:12 AM 28.4 °F - 24.8 °F 86% 29.67 in 1.2 mi Calm Calm - N/A   Scattered Clouds
8:20 AM 28.4 °F 23.3 °F 24.8 °F 86% 29.68 in 2.5 mi South 4.6 mph - N/A   Scattered Clouds
8:22 AM 28.4 °F 24.6 °F 24.8 °F 86% 29.67 in 0.8 mi South 3.5 mph - N/A   Mist
8:53 AM 28.9 °F - 26.1 °F 89% 29.74 in 0.2 mi Calm Calm - N/A Fog Light Freezing Fog
9:19 AM 33.8 °F - 28.4 °F 81% 29.70 in 1.2 mi Calm Calm - N/A   Mostly Cloudy
9:26 AM 33.8 °F - 28.4 °F 81% 29.71 in 3.0 mi Calm Calm - N/A   Mostly Cloudy
9:35 AM 33.8 °F - 28.4 °F 81% 29.71 in 6.0 mi Calm Calm - N/A   Scattered Clouds
9:53 AM 34.0 °F - 30.0 °F 85% 29.75 in 5.0 mi Calm Calm - N/A   Mostly Cloudy
10:53 AM 37.0 °F - 32.0 °F 82% 29.77 in 7.0 mi Calm Calm - N/A   Mostly Cloudy
11:53 AM 42.1 °F 36.1 °F 33.1 °F 70% 29.78 in 10.0 mi NW 10.4 mph - N/A   Partly Cloudy
12:53 PM 44.1 °F 37.7 °F 32.0 °F 63% 29.78 in 10.0 mi NW 12.7 mph - N/A   Mostly Cloudy
1:53 PM 45.0 °F 38.2 °F 30.9 °F 58% 29.79 in 10.0 mi NW 15.0 mph - N/A   Clear
2:53 PM 45.0 °F 38.9 °F 30.0 °F 56% 29.81 in 10.0 mi WNW 12.7 mph - N/A   Clear
3:53 PM 41.0 °F 35.2 °F 30.0 °F 65% 29.85 in 10.0 mi NW 9.2 mph - N/A   Overcast
4:53 PM 39.9 °F 33.9 °F 32.0 °F 73% 29.88 in 10.0 mi NNW 9.2 mph - N/A   Overcast
5:53 PM 37.9 °F 34.4 °F 30.9 °F 76% 29.90 in 10.0 mi NNE 4.6 mph - N/A   Overcast
6:53 PM 37.0 °F 33.3 °F 28.9 °F 73% 29.91 in 10.0 mi SW 4.6 mph - N/A   Overcast
7:53 PM 32.0 °F - 27.0 °F 82% 29.94 in 10.0 mi Calm Calm - N/A   Clear
8:53 PM 32.0 °F - 28.0 °F 85% 29.97 in 10.0 mi Calm Calm - N/A   Overcast
9:53 PM 35.1 °F 32.2 °F 28.9 °F 78% 29.98 in 10.0 mi WNW 3.5 mph - N/A   Mostly Cloudy
10:53 PM 33.1 °F 30.0 °F 27.0 °F 78% 29.99 in 10.0 mi West 3.5 mph - N/A   Clear
11:53 PM 28.0 °F 22.8 °F 23.0 °F 81% 30.00 in 10.0 mi ENE 4.6 mph - N/A   Clear